TimeCST,TemperatureF,Dew PointF,Humidity,Sea Level PressureIn,VisibilityMPH,Wind Direction,Wind SpeedMPH,Gust SpeedMPH,PrecipitationIn,Events,Conditions,WindDirDegrees,DateUTC
12:15 AM,64.4,60.8,88,30.05,7.0,SSE,10.4,16.1,N/A,,Unknown,160,2014-02-02 06:15:00
12:35 AM,64.0,60.8,89,30.05,7.0,SSE,8.1,-,N/A,,Unknown,160,2014-02-02 06:35:00
12:55 AM,64.0,60.8,89,30.04,7.0,SSE,9.2,-,N/A,,Unknown,160,2014-02-02 06:55:00
1:15 AM,63.9,60.8,90,30.05,7.0,SSE,6.9,-,N/A,,Unknown,160,2014-02-02 07:15:00
1:35 AM,64.0,60.8,89,30.05,10.0,SSE,9.2,-,N/A,,Unknown,160,2014-02-02 07:35:00
1:55 AM,64.0,60.8,89,30.05,10.0,SSE,4.6,-,N/A,,Unknown,150,2014-02-02 07:55:00
2:15 AM,64.2,60.8,89,30.04,10.0,SSE,4.6,-,N/A,,Unknown,150,2014-02-02 08:15:00
2:35 AM,64.2,61.2,90,30.04,4.0,SSE,5.8,-,N/A,,Mist,160,2014-02-02 08:35:00
2:55 AM,64.4,61.3,90,30.03,2.0,SSE,5.8,-,N/A,,Mist,160,2014-02-02 08:55:00
3:15 AM,64.4,61.7,91,30.04,2.5,SSE,4.6,-,N/A,,Mist,160,2014-02-02 09:15:00
3:35 AM,64.4,61.7,91,30.04,4.0,SSE,4.6,-,N/A,,Mist,160,2014-02-02 09:35:00
3:55 AM,64.4,61.7,91,30.04,2.0,SSE,4.6,-,N/A,,Mist,160,2014-02-02 09:55:00
4:15 AM,64.4,61.7,91,30.04,1.2,SSE,4.6,-,N/A,,Mist,150,2014-02-02 10:15:00
4:35 AM,64.6,61.9,91,30.03,2.0,SSE,6.9,-,N/A,,Mist,150,2014-02-02 10:35:00
4:55 AM,64.6,61.9,91,30.04,3.0,South,4.6,-,N/A,,Mist,170,2014-02-02 10:55:00
5:15 AM,64.8,62.1,91,30.04,5.0,SSE,4.6,-,N/A,Rain,Rain,150,2014-02-02 11:15:00
5:35 AM,64.8,62.1,91,30.03,4.0,SSE,4.6,-,N/A,,Mist,150,2014-02-02 11:35:00
5:55 AM,64.9,62.2,91,30.03,4.0,SE,3.5,-,N/A,,Light Drizzle,140,2014-02-02 11:55:00
6:15 AM,65.1,62.4,91,30.03,4.0,SE,5.8,-,N/A,,Drizzle,140,2014-02-02 12:15:00
6:35 AM,65.3,62.6,91,30.04,5.0,SSE,6.9,-,0.01,,Mist,150,2014-02-02 12:35:00
6:55 AM,65.3,62.6,91,30.04,4.0,SSE,8.1,-,0.01,,Mist,150,2014-02-02 12:55:00
7:15 AM,65.5,62.6,90,30.04,3.0,SSE,4.6,-,N/A,,Mist,160,2014-02-02 13:15:00
7:35 AM,65.5,62.8,91,30.05,2.0,SSE,4.6,-,N/A,,Mist,150,2014-02-02 13:35:00
7:55 AM,65.7,62.8,90,30.05,2.0,SSE,6.9,-,N/A,,Mist,160,2014-02-02 13:55:00
8:15 AM,65.8,63.0,90,30.05,3.0,SSE,4.6,-,N/A,,Mist,150,2014-02-02 14:15:00
8:35 AM,66.2,63.1,90,30.05,4.0,SSE,4.6,-,N/A,,Mist,150,2014-02-02 14:35:00
8:55 AM,66.2,63.1,90,30.05,4.0,SSE,8.1,-,N/A,,Mist,150,2014-02-02 14:55:00
9:15 AM,66.2,63.3,90,30.05,4.0,SSE,10.4,16.1,N/A,,Mist,160,2014-02-02 15:15:00
9:35 AM,66.4,63.5,90,30.04,5.0,SE,4.6,-,N/A,,Mist,140,2014-02-02 15:35:00
9:55 AM,66.4,63.5,90,30.04,4.0,SE,5.8,-,0.01,Rain,Rain,140,2014-02-02 15:55:00
10:15 AM,66.4,63.1,89,30.04,2.5,SSE,8.1,-,0.07,Rain,Heavy Rain,160,2014-02-02 16:15:00
10:35 AM,66.2,63.1,90,30.03,5.0,SE,5.8,-,0.14,Rain,Light Rain,140,2014-02-02 16:35:00
10:55 AM,66.2,63.0,89,30.03,7.0,SE,9.2,-,0.14,,Unknown,140,2014-02-02 16:55:00
11:15 AM,66.4,63.3,90,30.02,3.0,SSE,5.8,-,N/A,Rain,Rain,150,2014-02-02 17:15:00
11:35 AM,66.6,63.5,90,30.01,4.0,SSE,6.9,-,0.01,,Light Drizzle,160,2014-02-02 17:35:00
11:55 AM,67.1,63.9,89,29.99,4.0,SE,3.5,-,0.01,,Drizzle,140,2014-02-02 17:55:00
12:15 PM,67.1,63.7,89,29.98,3.0,SSE,9.2,-,0.02,Rain,Light Rain,150,2014-02-02 18:15:00
12:35 PM,67.3,64.4,90,29.97,4.0,South,10.4,-,0.02,,Mist,180,2014-02-02 18:35:00
12:55 PM,67.5,64.4,90,29.95,3.0,SSE,10.4,17.3,0.02,Thunderstorm,Mist,160,2014-02-02 18:55:00
1:15 PM,67.6,64.6,90,29.94,1.8,South,12.7,18.4,N/A,,Mist,170,2014-02-02 19:15:00
1:35 PM,68.0,64.8,89,29.94,2.5,South,9.2,-,0.01,Rain,Rain,170,2014-02-02 19:35:00
1:55 PM,68.4,65.3,90,29.94,1.8,SSE,9.2,-,0.04,Rain-Thunderstorm,Rain,160,2014-02-02 19:55:00
2:15 PM,68.5,65.5,90,29.93,3.0,South,5.8,-,0.01,Rain,Light Rain,180,2014-02-02 20:15:00
2:35 PM,68.9,65.8,90,29.92,2.0,SSE,10.4,-,0.04,Rain,Rain,160,2014-02-02 20:35:00
2:55 PM,69.1,66.2,91,29.92,3.0,South,8.1,-,0.04,,Drizzle,170,2014-02-02 20:55:00
3:15 PM,69.8,66.6,89,29.92,5.0,South,12.7,18.4,N/A,Rain-Thunderstorm,Light Thunderstorms and Rain,170,2014-02-02 21:15:00
3:35 PM,69.8,66.6,89,29.92,3.0,South,9.2,18.4,0.03,Rain-Thunderstorm,Rain,170,2014-02-02 21:35:00
3:55 PM,69.4,66.4,90,29.93,4.0,South,10.4,-,0.04,Rain,Light Rain,170,2014-02-02 21:55:00
4:15 PM,69.4,66.2,89,29.93,5.0,South,8.1,-,N/A,,Mist,170,2014-02-02 22:15:00
4:35 PM,69.3,66.2,90,29.92,5.0,South,11.5,-,N/A,,Mist,170,2014-02-02 22:35:00
4:55 PM,69.3,66.2,90,29.92,4.0,South,12.7,18.4,N/A,,Mist,170,2014-02-02 22:55:00
5:15 PM,69.4,66.2,89,29.92,5.0,South,11.5,20.7,N/A,,Mist,180,2014-02-02 23:15:00
5:35 PM,69.6,66.2,89,29.92,4.0,South,8.1,-,N/A,,Mist,170,2014-02-02 23:35:00
5:55 PM,69.6,66.4,89,29.93,4.0,South,10.4,18.4,N/A,,Mist,180,2014-02-02 23:55:00
6:15 PM,69.8,66.4,89,29.93,5.0,South,12.7,17.3,N/A,,Mist,190,2014-02-03 00:15:00
6:35 PM,69.8,66.4,89,29.92,5.0,South,11.5,-,N/A,,Mist,190,2014-02-03 00:35:00
6:55 PM,70.0,66.6,89,29.92,5.0,South,12.7,-,N/A,,Mist,190,2014-02-03 00:55:00
7:15 PM,70.2,66.7,89,29.93,7.0,South,9.2,17.3,N/A,,Unknown,190,2014-02-03 01:15:00
7:35 PM,70.3,67.1,89,29.93,4.0,SSW,10.4,-,0.06,Rain,Light Rain,200,2014-02-03 01:35:00
7:55 PM,70.7,67.3,89,29.93,7.0,SSW,11.5,-,0.06,Rain,Rain,210,2014-02-03 01:55:00
8:15 PM,70.9,67.3,88,29.93,7.0,SSW,9.2,-,N/A,Rain,Rain,210,2014-02-03 02:15:00
8:35 PM,71.1,67.5,88,29.93,10.0,SSW,9.2,-,N/A,,Unknown,210,2014-02-03 02:35:00
8:55 PM,71.6,68.0,88,29.93,10.0,SSW,11.5,17.3,0.01,Rain,Light Rain,210,2014-02-03 02:55:00
9:15 PM,71.6,68.0,88,29.94,7.0,SW,13.8,19.6,0.01,,Light Drizzle,220,2014-02-03 03:15:00
9:35 PM,71.8,68.0,88,29.94,7.0,SW,10.4,17.3,0.01,,Unknown,220,2014-02-03 03:35:00
9:55 PM,72.0,68.0,87,29.94,10.0,SSW,11.5,16.1,0.01,,Unknown,210,2014-02-03 03:55:00
10:15 PM,72.1,68.0,87,29.94,10.0,SSW,12.7,18.4,N/A,,Unknown,210,2014-02-03 04:15:00
10:35 PM,72.1,67.6,86,29.95,10.0,SW,15.0,23.0,N/A,,Unknown,220,2014-02-03 04:35:00
10:55 PM,72.0,67.5,86,29.94,10.0,SW,13.8,21.9,N/A,,Unknown,220,2014-02-03 04:55:00
11:15 PM,72.0,67.5,86,29.95,10.0,SW,10.4,17.3,N/A,,Unknown,230,2014-02-03 05:15:00
11:35 PM,59.7,54.0,81,29.98,10.0,NW,16.1,27.6,N/A,,Unknown,320,2014-02-03 05:35:00
11:55 PM,52.9,49.1,87,30.00,10.0,North,12.7,-,N/A,Rain,Light Rain,350,2014-02-03 05:55:00